Joplin, MO

12:37 AM CDT on October 21, 2019 (GMT -0500)
Joplin Regional

Weather History for KJLN - August, 2019

Change the Weather History Date:

Saturday, August 17, 2019

  Actual Average Record
Temperature  
Mean Temperature 79 °F 80 °F  
Max Temperature 86 °F 91 °F 105 °F (1956)
Min Temperature 72 °F 69 °F 50 °F (1992)
Degree Days  
Heating Degree Days 0 0  
Month to date heating degree days 0 0  
Since 1 June heating degree days 1 5  
Since 1 July heating degree days 0 0  
Cooling Degree Days 14 15  
Month to date cooling degree days 236 266  
Year to date cooling degree days 1087 1237  
Since 1 June cooling degree days 934 1057  
Growing Degree Days 29 (Base 50)    
Moisture  
Dew Point 72 °F    
Average Humidity 81    
Maximum Humidity 93    
Minimum Humidity 69    
Precipitation  
Precipitation 0.02 in 0.11 in 2.12 in (1996)
Month to date precipitation 2.78 1.73  
Year to date precipitation 45.69 29.35  
Sea Level Pressure  
Sea Level Pressure 29.85 in    
Wind  
Wind Speed 9 mph (SSE)    
Max Wind Speed 21 mph    
Max Gust Speed 28 mph    
Visibility 10 miles    
Events Rain , Thunderstorm    
T = Trace of Precipitation, MM = Missing Value Source: NWS Daily Summary

Daily Weather History Graph

Daily Weather History Graph

Search for Another Location

Airport or City:

Astronomy

Aug. 17, 2019 Rise Set
Actual Time 6:36 AM CDT 8:07 PM CDT
Civil Twilight 6:08 AM CDT 8:34 PM CDT
Nautical Twilight 5:35 AM CDT 9:07 PM CDT
Astronomical Twilight 5:00 AM CDT 9:42 PM CDT
Moon 9:38 PM CDT (8/17) 8:23 AM CDT (8/17)
Length of Visible Light 14h 26m
Length of Day
13h 31m
Waning Gibbous, 96% of the Moon is Illuminated
Aug 17
Waning Gibbous
Aug 23
Last Quarter
Aug 30
New
Sep 5
First Quarter
Sep 13
Full

Hourly Weather History & Observations

Time (CDT) Temp. Heat Index Dew Point Humidity Pressure Visibility Wind Dir Wind Speed Gust Speed Precip Events Conditions
12:53 AM 72.0 °F - 69.1 °F 91% 29.84 in 10.0 mi SE 5.8 mph - N/A   Clear
1:53 AM 73.0 °F - 69.1 °F 87% 29.79 in 10.0 mi SSE 9.2 mph - N/A   Clear
2:53 AM 73.0 °F - 69.1 °F 87% 29.81 in 10.0 mi South 8.1 mph - N/A   Clear
3:53 AM 72.0 °F - 69.1 °F 91% 29.86 in 10.0 mi SSE 6.9 mph - N/A   Clear
4:53 AM 73.9 °F - 69.1 °F 85% 29.85 in 10.0 mi South 12.7 mph - N/A   Clear
5:53 AM 73.9 °F - 69.1 °F 85% 29.85 in 10.0 mi SSE 11.5 mph - N/A   Clear
6:53 AM 73.9 °F - 70.0 °F 87% 29.93 in 10.0 mi Calm Calm - N/A Thunderstorm Overcast
7:15 AM 73.9 °F - 71.1 °F 91% 29.97 in 10.0 mi Variable 3.5 mph - N/A   Overcast
7:53 AM 75.0 °F - 71.1 °F 87% 29.94 in 10.0 mi Variable 3.5 mph - N/A   Mostly Cloudy
8:53 AM 78.1 °F - 71.1 °F 79% 29.94 in 10.0 mi SSE 5.8 mph - N/A   Partly Cloudy
9:07 AM 78.1 °F - 72.0 °F 81% 29.97 in 10.0 mi Calm Calm - N/A Thunderstorm Thunderstorm
9:53 AM 75.9 °F - 73.0 °F 91% 29.95 in 10.0 mi Calm Calm - N/A Thunderstorm Thunderstorm
10:53 AM 75.0 °F - 73.0 °F 94% 29.98 in 7.0 mi Variable 4.6 mph - 0.00 in Rain , Thunderstorm Light Thunderstorms and Rain
11:53 AM 75.0 °F - 71.1 °F 87% 29.89 in 10.0 mi SE 9.2 mph - 0.02 in Thunderstorm Thunderstorm
12:19 PM 77.0 °F - 71.1 °F 82% 29.87 in 10.0 mi SSE 15.0 mph - 0.00 in Rain Light Rain
12:53 PM 81.0 °F 84.9 °F 71.1 °F 72% 29.82 in 10.0 mi SSE 17.3 mph 24.2 mph 0.00 in   Scattered Clouds
1:53 PM 82.0 °F 86.7 °F 72.0 °F 71% 29.81 in 10.0 mi South 17.3 mph 24.2 mph N/A   Clear
2:53 PM 84.9 °F 91.4 °F 73.0 °F 67% 29.83 in 10.0 mi SSW 16.1 mph 24.2 mph N/A   Partly Cloudy
3:53 PM 84.0 °F 91.9 °F 75.0 °F 74% 29.81 in 10.0 mi South 13.8 mph - N/A   Partly Cloudy
4:53 PM 82.9 °F 90.8 °F 75.9 °F 79% 29.80 in 10.0 mi South 12.7 mph - 0.00 in   Mostly Cloudy
5:53 PM 84.9 °F 93.3 °F 75.0 °F 72% 29.77 in 10.0 mi South 12.7 mph - 0.00 in   Clear
6:53 PM 86.0 °F 95.1 °F 75.0 °F 70% 29.76 in 10.0 mi South 11.5 mph - N/A   Scattered Clouds
7:53 PM 82.9 °F 88.8 °F 73.0 °F 72% 29.76 in 10.0 mi South 8.1 mph - 0.00 in Rain Light Rain
8:53 PM 82.9 °F 87.5 °F 71.1 °F 67% 29.77 in 10.0 mi South 12.7 mph - 0.00 in   Clear
9:53 PM 81.0 °F 84.9 °F 71.1 °F 72% 29.80 in 10.0 mi SSE 5.8 mph - N/A   Clear
10:53 PM 79.0 °F - 71.1 °F 77% 29.81 in 10.0 mi SSE 12.7 mph - N/A Thunderstorm Clear
11:09 PM 81.0 °F 84.9 °F 71.1 °F 72% 29.80 in 10.0 mi SSE 17.3 mph 26.5 mph N/A   Clear
11:53 PM 80.1 °F 83.6 °F 71.1 °F 74% 29.81 in 10.0 mi ESE 6.9 mph - N/A   Clear